Wind_Speed
25 23 26 26 25 26 25 24 18 12 12 16 18 16 14 17 19 15 11 18 24 19 18 19 19 16 11 12 14 14 14 15 18 18 15 16 16 16 17 17 17 15 12 10 9 8 8 8 7 6 6 6 7 6 4 3 2 2 0 2 2 2 3 3 3 4 5 6 7 7 7 6 6 7 8 9 8 8 8 9 12 13 14 14 14 13
26 24 26 26 23 23 25 23 18 13 13 14 16 17 15 16 19 16 12 18 24 20 17 19 18 14 13 15 16 16 15 15 17 18 18 18 15 15 16 17 17 16 12 11 10 8 8 8 7 6 5 6 6 6 5 5 4 2 2 2 3 4 4 4 5 6 7 8 8 8 8 8 9 7 7 8 7 7 7 8 10 11 12 12 13 14
25 24 24 24 21 22 23 25 22 16 15 15 15 17 17 17 16 15 13 15 23 21 15 20 18 13 17 18 18 19 17 16 15 16 19 20 17 16 17 18 18 15 13 13 11 9 9 8 7 6 5 5 5 6 6 6 5 4 4 4 4 5 5 6 7 8 9 10 10 10 8 8 9 8 8 8 8 7 7 8 9 9 11 12 13 14
23 23 21 22 23 24 24 28 26 18 17 17 17 18 18 19 16 15 16 14 21 21 13 18 18 14 20 20 19 21 19 16 15 17 22 22 20 18 19 20 19 16 14 14 13 11 9 9 7 6 5 5 6 7 8 7 6 6 6 5 6 6 6 7 8 10 11 11 12 12 11 9 8 8 9 10 9 8 9 9 9 10 11 12 14 15
19 18 20 25 26 27 25 27 26 21 20 19 18 18 16 21 16 12 18 17 18 19 13 17 16 14 18 17 18 21 19 17 15 18 24 27 25 21 20 21 19 18 16 15 15 12 11 9 9 8 7 7 8 8 8 9 8 8 7 7 8 8 8 8 9 11 13 14 14 14 13 11 10 10 11 12 12 10 11 11 11 12 12 12 14 16
18 16 21 25 25 26 25 26 27 24 22 19 20 18 12 19 18 10 16 19 16 16 17 19 14 12 17 16 19 21 19 18 16 17 23 29 30 25 23 23 21 21 19 18 16 14 12 11 9 10 10 10 10 10 10 11 10 9 9 9 10 10 10 11 11 12 13 15 16 17 16 14 13 13 14 15 15 14 13 13 13 15 15 14 16 18
19 19 22 23 23 25 25 26 27 25 22 19 22 20 12 14 17 12 14 18 16 14 17 23 16 9 16 18 21 23 20 19 17 16 21 28 30 27 26 26 24 23 22 19 17 15 14 13 11 11 11 12 12 12 12 12 11 10 11 12 12 13 13 13 14 14 15 16 17 19 19 18 17 16 17 18 18 17 17 15 15 16 17 17 19 20
19 20 21 22 24 26 27 26 27 27 22 16 19 23 18 14 14 13 14 16 14 9 13 23 19 10 14 19 23 25 22 20 19 18 20 26 29 28 27 26 25 24 23 21 19 18 17 15 13 13 13 13 12 13 12 12 12 12 13 14 14 15 16 16 16 17 18 18 19 21 22 23 22 20 20 20 20 20 20 18 17 17 18 19 19 20
20 23 22 24 27 27 28 26 25 28 22 13 17 22 20 16 14 13 15 16 12 8 13 21 19 13 12 20 26 25 21 20 22 20 19 23 26 25 25 25 26 25 23 23 21 20 19 17 15 15 15 14 13 13 13 13 13 14 15 15 16 17 18 18 18 19 20 21 22 24 25 25 24 24 23 23 23 22 22 21 20 19 19 19 19 19
18 25 24 25 28 27 26 23 24 29 22 13 18 23 19 16 14 12 13 14 12 11 14 20 23 15 10 20 25 22 17 18 23 23 21 21 22 23 23 24 25 24 23 23 23 22 21 19 18 17 17 17 16 15 14 14 14 14 15 16 18 19 20 20 20 21 22 24 26 26 26 25 24 24 24 24 25 25 24 23 22 21 21 20 19 19
15 22 23 25 27 25 23 21 23 27 21 14 19 24 20 16 14 12 12 13 11 11 15 19 25 19 10 18 22 20 19 22 24 24 23 22 22 23 23 23 24 24 23 23 25 25 23 21 20 19 19 19 18 17 17 16 15 16 16 17 19 20 21 22 23 23 25 27 29 28 27 25 24 24 24 25 25 26 26 25 23 23 22 22 21 21
16 22 24 25 24 21 21 23 23 24 22 18 19 21 19 16 15 13 13 13 9 10 15 18 23 20 11 14 21 23 25 26 26 25 24 24 23 23 23 23 24 24 23 23 24 25 25 23 22 21 20 20 20 19 19 18 17 17 18 19 20 21 22 23 24 26 28 30 29 27 26 25 24 23 24 24 25 26 28 27 26 24 24 23 22 23
19 23 23 24 25 24 22 23 24 24 24 21 20 23 20 15 14 13 12 13 9 9 13 17 21 17 8 14 20 24 25 25 25 25 24 23 23 23 23 23 23 23 23 23 24 25 26 24 23 22 21 21 20 20 20 19 18 19 19 21 22 22 23 24 25 27 29 27 24 23 23 23 24 23 24 24 24 26 28 29 28 27 26 24 22 23
18 21 22 23 26 27 24 24 25 25 25 25 23 25 22 13 10 10 9 11 12 8 10 17 22 14 10 15 18 21 24 25 25 24 23 22 21 21 21 22 22 22 22 22 22 22 23 23 23 23 22 21 21 20 20 19 19 20 21 22 23 22 23 25 26 27 25 22 20 21 22 23 25 25 25 25 24 24 27 28 29 29 28 24 22 22
19 18 23 25 23 26 27 25 24 23 24 25 23 24 24 17 12 10 9 12 14 11 12 17 17 11 12 16 17 19 22 23 24 23 22 21 20 19 19 19 19 19 19 19 19 19 20 22 22 23 23 22 21 20 20 20 20 22 23 23 22 23 24 25 24 22 19 19 20 21 21 23 24 26 27 26 23 23 25 27 29 29 27 24 22 22
21 16 22 26 20 23 29 25 21 21 23 24 22 22 23 23 18 11 7 9 13 12 11 11 8 7 11 14 17 18 19 21 23 23 22 20 19 18 17 17 16 16 16 15 14 14 15 17 19 20 21 20 20 19 19 20 21 22 22 22 23 24 25 23 19 17 17 18 19 20 20 21 22 24 25 26 24 22 23 26 28 28 25 23 21 21
20 15 20 25 20 22 28 26 22 23 21 22 24 23 21 20 18 12 6 6 11 11 8 8 8 10 11 11 15 17 17 20 21 21 21 19 17 17 15 15 15 15 13 12 11 10 10 11 12 14 15 16 17 17 18 20 21 22 22 23 24 24 22 18 15 15 17 18 19 19 20 20 21 21 23 24 24 22 23 25 25 25 24 22 21 20
18 15 18 24 21 20 24 25 25 24 19 20 26 24 18 13 13 17 11 7 10 8 7 11 13 15 15 13 16 18 17 19 21 22 21 18 16 15 14 15 14 13 12 11 11 9 9 9 9 10 11 13 15 16 18 20 21 22 23 23 22 19 16 15 14 16 17 19 19 19 20 21 21 21 22 22 22 22 23 23 23 22 22 21 21 19
19 15 16 23 23 21 24 24 25 27 22 21 24 23 20 14 13 19 15 9 11 7 6 12 15 17 18 17 22 23 19 21 22 22 20 18 17 16 15 15 13 12 12 11 11 10 10 10 11 11 13 14 16 18 19 21 22 21 19 18 16 14 14 14 16 17 18 19 20 20 20 22 22 22 24 25 22 21 21 21 20 20 20 20 19 17
21 18 14 21 24 22 25 25 25 28 26 22 21 23 23 18 16 20 16 13 14 9 7 11 13 14 15 17 25 26 20 22 23 21 21 19 18 17 16 15 13 12 12 11 11 11 10 11 12 13 15 16 17 18 18 18 17 15 14 14 14 14 14 15 17 18 19 20 20 21 21 23 23 23 25 28 23 18 17 17 19 20 20 19 18 17
22 21 13 20 26 23 25 27 26 27 28 25 24 26 26 19 16 18 16 14 15 10 8 9 9 12 13 16 25 26 20 22 25 23 22 20 19 18 16 15 14 13 13 12 12 12 12 13 14 14 16 15 14 14 13 13 12 12 13 13 14 15 16 17 17 18 19 20 20 21 22 23 24 24 25 28 24 15 13 13 17 19 18 17 17 17
21 20 15 21 27 25 25 28 26 24 27 27 25 26 27 23 19 17 12 12 15 11 10 11 8 11 16 18 21 22 20 23 25 24 22 21 19 18 16 15 15 14 14 13 12 12 12 13 14 14 14 12 10 10 9 10 11 12 14 14 15 15 16 16 17 18 19 20 20 21 22 23 23 23 24 27 21 12 12 11 12 14 16 16 16 17
19 17 18 23 26 23 23 27 28 24 24 25 23 23 25 24 23 19 13 14 14 9 9 13 8 7 14 18 18 18 21 24 25 23 21 20 19 17 16 15 15 14 13 12 12 12 13 14 13 12 11 9 8 8 8 9 11 13 14 15 15 15 15 16 17 17 19 19 20 20 21 22 22 21 22 25 19 10 11 10 9 12 15 15 14 16
17 14 20 23 21 19 20 25 28 25 23 23 22 23 25 26 26 22 15 16 16 11 10 12 7 6 11 18 19 19 21 23 23 21 20 20 19 17 16 15 14 12 11 11 12 13 14 14 13 11 10 9 8 9 10 11 12 14 15 14 14 14 15 16 16 17 18 18 18 19 19 20 20 19 20 21 17 9 7 7 9 10 12 12 13 15
16 13 21 21 16 14 15 18 23 25 25 24 21 23 26 26 26 21 15 15 15 14 15 11 6 9 13 19 21 20 20 22 23 22 21 20 18 17 15 14 13 12 12 13 13 14 15 14 13 12 11 10 10 11 11 12 13 14 13 13 13 14 15 15 15 16 17 17 17 18 18 17 17 16 16 17 13 7 5 5 7 8 8 10 13 15
15 13 20 19 13 14 13 14 20 24 25 23 21 25 27 24 24 22 16 15 14 13 16 14 8 14 17 20 22 22 22 23 23 23 22 20 18 16 15 15 14 14 14 15 14 15 15 14 14 14 13 12 12 11 11 11 12 12 12 12 13 14 14 14 14 15 15 16 17 17 18 17 15 13 13 13 10 6 5 5 6 7 7 9 12 14
16 14 18 15 12 16 16 14 19 23 24 23 22 26 29 25 23 22 18 15 14 15 16 13 10 17 21 22 24 25 25 23 22 22 21 19 17 17 16 16 15 15 15 15 14 14 14 14 14 13 13 12 10 9 8 8 9 10 10 11 12 13 13 13 13 14 15 16 16 16 17 17 15 12 10 10 8 7 7 7 7 8 10 11 13 14
18 15 15 11 7 11 15 15 20 23 22 22 22 26 32 30 25 21 17 14 14 14 14 12 10 14 21 24 26 28 25 21 19 19 18 18 19 19 19 17 16 15 14 13 12 12 11 11 10 10 10 8 7 6 6 7 8 9 9 9 10 11 12 12 13 14 15 15 15 15 15 16 14 11 9 9 9 8 8 9 9 9 11 14 15 15
20 15 15 12 7 10 16 19 24 27 24 23 24 26 31 31 25 21 16 13 14 12 11 15 13 11 17 22 25 26 24 21 19 18 18 19 20 20 20 18 15 11 10 10 10 8 8 8 7 7 7 6 5 5 5 7 8 8 9 9 9 10 11 12 13 14 15 15 15 15 14 14 13 10 8 8 9 9 10 11 11 11 12 15 16 15
22 18 17 14 9 11 18 22 25 27 26 25 24 25 27 27 24 22 18 15 15 11 9 15 17 15 18 20 22 23 23 21 20 20 20 20 20 21 19 15 12 9 8 8 8 7 6 5 5 6 5 4 4 3 4 5 6 7 7 8 8 8 10 11 13 14 15 14 14 14 14 14 13 11 9 8 9 10 11 12 13 13 14 15 14 13
23 20 20 17 11 11 16 21 23 24 24 25 24 24 26 25 24 23 19 16 15 13 11 15 18 19 19 19 20 21 21 20 21 22 22 20 20 19 15 12 10 9 8 8 8 7 6 5 5 5 4 4 2 1 2 4 5 6 7 7 7 7 8 10 12 14 15 15 14 14 14 14 14 13 12 10 10 9 12 13 13 13 13 14 13 12
23 20 21 19 12 10 15 17 18 20 21 22 24 25 25 25 24 22 19 17 16 15 15 16 18 18 18 17 18 19 19 20 21 21 20 19 19 17 12 10 9 8 8 9 8 6 5 5 5 4 4 3 2 1 1 2 4 5 5 6 6 7 7 9 11 13 15 16 15 14 14 14 14 13 12 12 11 9 9 10 10 11 13 14 13 12
24 22 24 20 10 10 15 16 15 17 16 15 19 24 25 24 24 22 21 20 18 16 16 17 17 18 17 17 18 19 21 22 20 18 17 17 17 15 11 8 9 9 10 10 7 4 4 4 5 4 4 4 3 2 2 2 2 3 5 6 6 6 7 9 10 12 14 15 16 15 14 13 13 13 12 11 11 10 7 6 6 8 10 12 12 12
22 20 23 18 11 13 17 17 15 13 9 9 15 21 23 23 23 23 21 21 20 19 17 16 16 17 18 18 19 19 22 23 21 18 17 16 16 13 9 9 10 11 11 10 7 5 4 4 5 6 6 6 5 4 3 2 2 4 5 6 7 7 8 8 9 11 12 13 14 15 14 13 13 12 11 10 9 9 8 6 6 6 8 10 13 13
19 21 21 15 12 18 21 17 12 7 7 11 16 19 20 21 22 22 21 21 21 19 17 16 15 16 17 18 19 20 22 23 20 17 17 17 15 11 9 10 12 11 10 9 8 6 4 4 5 6 7 6 5 4 3 2 3 5 6 7 7 8 8 8 8 9 10 12 13 14 13 13 12 11 10 8 7 7 7 7 6 7 6 7 9 11
17 21 21 15 13 18 19 13 8 5 8 15 18 17 18 19 19 18 18 19 20 19 17 16 14 15 16 17 19 21 23 22 18 17 18 16 13 11 9 10 11 11 9 9 8 8 6 5 5 5 6 5 5 4 3 3 4 6 6 7 7 7 7 8 8 9 9 10 11 12 13 13 12 10 8 6 5 6 6 7 4 3 4 1 4 7
14 17 19 16 14 14 13 9 6 6 8 15 19 19 18 19 18 17 16 17 19 19 17 15 14 14 15 16 19 21 22 22 21 20 19 14 11 11 10 10 10 10 9 9 9 9 7 6 6 5 4 4 4 4 5 5 6 5 5 6 7 7 7 8 8 9 9 8 9 11 12 12 11 9 6 4 4 6 7 8 8 5 3 2 6 8
13 15 16 15 14 13 12 10 8 5 6 13 19 20 18 18 18 17 15 14 16 17 16 15 14 14 14 16 20 22 23 25 24 22 19 15 12 11 10 9 8 9 10 10 9 9 8 7 7 6 4 2 3 4 6 7 6 4 3 4 6 7 8 9 9 10 10 8 8 9 11 10 9 7 5 3 4 5 6 7 8 8 6 3 3 8
16 14 13 12 13 14 13 11 8 5 5 12 18 18 17 16 16 15 12 10 14 16 16 15 15 15 16 17 23 27 29 28 25 22 20 17 13 10 8 7 7 8 11 11 10 9 9 9 9 8 5 3 4 5 6 7 7 6 4 4 6 7 8 9 10 10 11 10 8 9 9 8 6 5 3 3 3 4 5 6 7 8 9 8 6 4
15 12 10 11 13 14 13 10 7 4 6 13 17 17 17 16 16 14 9 9 14 16 15 14 14 15 16 19 25 29 29 25 23 21 18 15 11 8 6 5 5 7 9 10 10 9 8 9 9 8 7 5 5 7 9 9 8 8 6 6 7 8 9 10 11 11 12 12 10 9 7 4 3 3 3 1 1 2 2 4 7 9 11 11 10 8
14 12 10 10 12 14 12 8 5 4 8 13 16 17 18 16 14 11 6 8 14 16 14 13 12 14 17 21 25 26 23 20 20 19 17 13 11 8 6 5 6 8 8 7 7 7 8 9 9 8 8 6 7 10 10 8 8 7 6 7 9 10 11 12 12 13 13 13 11 9 7 3 1 2 3 2 3 4 3 3 6 8 10 13 13 11
12 12 11 9 10 12 11 8 6 5 9 13 15 17 17 12 8 8 7 8 10 12 12 12 12 14 19 23 24 24 22 21 20 17 14 13 12 9 6 7 8 9 9 8 7 8 9 9 9 8 8 7 8 10 9 8 7 6 5 7 8 9 11 12 13 13 13 12 10 8 6 4 2 3 3 3 5 6 6 7 9 9 10 11 11 11
12 11 9 10 12 12 11 9 6 6 11 14 14 15 16 12 7 9 10 9 9 9 9 10 12 15 19 23 25 25 24 21 17 14 12 11 10 8 6 9 10 10 9 9 9 9 9 8 8 8 7 7 7 7 7 7 7 6 6 7 9 9 10 11 11 11 12 11 8 7 6 5 4 3 3 3 5 6 7 8 8 8 8 8 9 10
13 11 8 11 14 12 9 9 8 8 13 16 15 15 17 15 11 11 11 9 10 11 10 11 14 17 20 23 24 22 20 16 14 15 14 11 9 8 9 11 12 12 11 11 10 9 8 8 8 7 7 7 7 6 6 7 7 7 8 9 10 10 9 8 8 8 9 8 6 5 6 7 6 4 4 5 7 7 7 7 5 3 3 4 6 9
14 13 10 13 16 13 10 10 9 8 12 15 14 16 18 16 13 13 13 11 11 13 12 13 16 20 22 22 20 18 15 13 14 17 17 16 15 14 13 13 13 13 13 13 12 11 10 9 8 8 7 7 6 6 6 6 6 7 8 9 10 10 9 8 7 7 7 7 6 5 5 6 6 5 6 8 10 10 10 9 7 6 5 5 6 8
13 13 11 12 14 13 11 11 10 10 13 14 15 17 19 17 14 15 15 13 13 14 15 15 15 18 20 20 19 19 18 17 19 19 18 17 16 14 13 14 14 15 15 13 12 11 11 9 8 7 5 5 5 5 5 5 6 6 7 8 9 10 10 9 8 8 8 8 8 7 6 5 5 6 8 10 12 12 13 11 11 10 9 8 8 8
12 12 11 12 13 12 11 12 12 12 14 16 17 19 19 18 16 15 15 14 14 14 16 17 16 17 18 18 19 20 20 20 20 20 18 17 15 13 13 13 14 15 14 11 9 8 8 7 5 4 2 2 3 4 4 5 5 6 6 7 8 8 9 9 9 9 8 8 8 8 8 7 7 8 10 11 11 12 13 14 13 13 11 10 11 10
13 12 11 11 12 11 12 13 13 13 14 15 17 19 18 17 16 16 14 14 14 14 14 16 17 18 18 19 19 20 20 19 18 17 16 15 13 12 12 11 11 12 11 8 6 5 6 5 5 3 2 1 1 2 4 5 5 6 7 7 8 8 9 9 9 9 9 9 8 8 8 8 8 8 9 10 9 10 12 14 16 16 15 13 13 12
13 12 12 12 12 11 11 12 13 13 14 15 17 18 18 16 15 15 14 14 14 13 13 14 16 17 17 18 19 19 19 18 17 15 13 12 12 11 10 10 10 10 9 7 5 5 5 6 6 5 4 2 1 2 4 5 5 6 7 7 8 9 9 9 9 9 10 10 10 10 10 9 9 9 9 9 9 9 10 11 13 15 16 16 15 14
11 11 11 11 10 10 10 11 12 13 14 17 19 20 18 15 14 14 14 14 14 13 13 12 13 14 15 16 16 16 15 14 14 14 12 12 12 11 10 10 10 9 8 7 7 7 8 7 6 5 4 3 3 4 5 5 5 6 7 7 8 8 8 8 9 9 9 10 10 10 10 10 10 10 10 10 9 9 9 10 10 11 12 13 14 13
13 11 11 9 8 9 11 11 12 13 14 17 20 21 20 18 16 15 15 15 14 14 13 11 9 11 14 16 17 15 13 13 13 13 13 13 13 13 12 11 10 9 9 9 9 9 8 7 6 5 5 4 5 5 5 4 4 5 6 7 7 7 7 7 8 8 8 9 9 9 10 10 10 9 9 9 9 9 10 10 10 11 11 11 12 12
Wind_Direction
199 198 201 200 199 198 196 196 200 203 192 186 189 191 193 191 189 185 169 175 179 183 190 188 192 192 184 189 177 166 170 171 180 186 188 195 199 198 195 193 193 188 186 190 181 170 167 166 173 176 176 175 171 168 167 173 184 188 272 331 326 318 314 321 330 314 304 307 312 312 302 287 270 264 270 279 283 288 292 289 288 287 287 291 289 286
201 204 206 202 199 198 196 195 196 194 185 183 191 194 193 191 189 184 175 177 180 184 192 188 188 196 201 199 187 177 176 177 182 189 195 201 203 200 198 198 199 197 198 200 192 178 168 166 174 179 183 186 180 178 185 198 210 218 250 285 297 300 306 311 306 300 297 300 307 312 307 301 296 288 278 275 279 288 291 289 288 289 292 297 298 294
203 209 209 203 200 197 195 195 194 190 188 190 194 195 195 190 178 170 173 176 179 185 192 189 190 204 209 203 197 196 196 194 193 195 201 203 201 199 202 203 200 201 204 202 199 191 176 169 177 182 182 189 190 196 208 215 221 233 243 259 279 291 301 305 302 300 297 296 301 307 307 304 302 298 288 282 283 288 286 281 282 286 290 294 295 293
204 210 206 200 197 194 195 198 198 195 196 198 196 196 196 189 176 171 178 174 178 185 186 185 190 207 211 210 210 208 207 203 200 201 204 206 202 199 201 202 200 201 202 201 202 202 189 178 182 191 190 198 207 213 224 231 235 243 250 262 277 283 290 293 296 299 297 296 298 303 306 301 296 291 283 279 276 278 277 274 275 275 277 281 285 286
207 208 198 198 199 197 198 199 198 195 198 201 198 199 197 190 187 179 177 173 177 185 180 177 186 202 205 208 213 214 212 206 200 200 203 206 206 203 198 197 199 200 200 201 202 205 204 193 189 198 204 209 218 224 234 243 248 257 267 277 283 283 285 287 292 298 301 301 299 299 300 297 294 288 280 275 270 269 270 272 273 270 270 274 276 278
211 205 196 199 201 199 198 198 196 195 197 200 199 200 196 188 189 175 167 172 181 191 189 186 190 193 191 201 213 211 207 204 202 199 200 203 205 204 200 198 200 200 198 200 202 204 210 209 202 204 212 219 227 234 242 251 258 269 280 285 289 288 288 289 290 296 301 304 303 301 297 291 288 286 281 278 275 271 269 269 273 275 278 279 275 273
210 208 206 202 197 195 197 199 198 196 198 202 199 195 186 182 187 180 170 182 194 195 190 194 202 190 177 195 211 205 197 201 205 201 197 200 202 202 201 200 201 201 199 200 203 206 209 214 213 212 217 224 232 240 247 256 264 274 280 282 285 286 286 286 287 291 295 301 304 304 300 294 289 285 281 280 279 275 271 269 271 276 278 278 275 273
203 205 207 199 193 193 197 201 198 196 200 204 194 190 189 184 186 186 185 196 202 186 181 195 211 214 181 190 204 196 187 196 206 203 195 196 200 202 202 200 202 203 201 201 204 208 211 214 218 220 224 229 236 243 248 255 261 267 272 277 283 286 288 289 289 291 295 301 305 306 304 300 295 289 283 281 280 277 276 274 273 275 276 276 276 275
199 202 199 192 193 197 200 200 197 196 201 200 182 185 194 194 194 196 197 205 206 197 195 194 206 219 182 180 192 186 180 193 202 203 197 194 197 200 200 201 203 204 203 204 206 210 214 217 222 224 227 232 238 243 248 253 259 264 270 277 283 286 290 292 293 295 299 305 308 308 306 302 297 291 286 282 278 277 277 276 275 276 277 279 281 279
205 210 206 195 196 201 200 199 199 196 197 197 182 183 194 200 203 205 205 208 203 207 211 193 194 210 173 167 181 176 173 190 197 200 199 197 197 198 199 200 203 206 207 207 210 213 217 221 224 226 228 233 239 243 250 255 261 267 270 276 281 284 289 292 295 298 303 307 309 308 304 300 296 291 288 283 279 276 274 273 273 275 278 280 283 279
208 208 207 201 200 202 198 196 197 194 194 198 189 186 195 202 206 211 213 212 203 209 218 194 190 208 193 165 173 175 178 188 193 196 197 197 200 201 203 204 204 207 209 211 214 216 220 224 227 230 231 235 240 245 251 256 263 268 271 275 279 283 287 291 295 298 303 308 309 306 302 299 296 291 287 285 282 277 272 271 270 270 274 277 280 280
202 199 199 200 199 195 191 190 190 193 196 198 192 189 194 198 200 208 206 208 213 208 205 187 186 210 211 168 177 184 183 186 191 194 193 194 198 200 204 206 208 211 214 216 218 220 223 227 230 233 235 238 242 246 252 257 264 269 273 276 278 282 287 291 295 299 305 308 307 305 302 299 295 289 286 284 282 278 273 271 269 268 270 273 280 282
200 199 195 197 198 193 190 191 191 196 198 198 193 189 191 189 191 202 199 199 214 198 179 173 184 203 182 154 178 185 179 181 186 188 189 190 193 198 203 207 211 216 220 223 224 225 227 229 233 237 240 243 245 249 254 259 265 270 275 277 280 284 289 295 299 303 305 306 305 305 304 301 295 288 283 280 280 277 274 272 271 271 271 272 277 281
194 197 196 198 201 199 197 194 191 193 196 198 195 190 192 188 183 200 195 191 203 184 154 169 184 187 143 144 172 178 174 178 181 182 184 185 189 195 202 208 214 220 224 228 230 231 233 235 237 240 243 247 249 252 256 261 266 272 276 279 283 290 297 302 305 305 305 304 305 306 305 302 296 288 281 276 273 272 271 271 271 273 272 272 275 276
189 194 199 198 199 201 201 200 195 191 194 200 198 194 199 199 193 196 197 199 197 170 149 169 183 180 153 157 172 173 172 177 180 182 183 184 188 192 199 206 212 219 225 230 233 234 236 238 239 240 243 247 251 255 259 263 268 272 277 282 290 298 304 306 305 304 302 301 304 306 307 307 302 293 283 275 269 265 266 267 267 269 271 271 273 274
196 200 198 195 199 200 199 200 197 192 194 198 199 201 205 205 200 193 199 200 182 158 151 164 165 154 153 162 172 172 170 172 175 178 180 183 187 190 195 201 206 214 220 226 230 231 232 235 237 240 243 247 253 258 262 267 271 275 282 290 297 303 304 302 301 298 299 302 307 310 311 313 311 302 291 282 275 266 260 261 261 263 266 270 271 270
199 201 188 188 196 200 199 199 196 194 193 193 198 202 205 207 201 185 162 150 161 161 159 157 144 143 153 164 174 174 166 165 168 172 177 181 184 188 194 200 206 212 216 221 224 225 227 230 235 238 243 249 254 261 267 271 277 282 290 296 300 302 301 299 298 299 302 307 313 316 315 316 317 311 302 293 284 273 262 259 259 260 262 268 271 268
198 194 183 189 195 197 198 198 199 201 196 192 199 198 194 201 201 193 184 160 175 186 169 171 169 164 167 168 173 177 168 164 170 174 176 181 184 189 195 201 208 211 214 220 223 227 233 236 243 247 253 259 262 268 272 276 282 288 293 297 298 300 299 299 303 305 307 311 315 318 317 316 316 315 315 307 288 274 266 260 257 258 260 268 272 267
200 195 185 192 197 195 193 194 199 205 203 199 200 195 189 193 194 196 199 188 191 194 159 173 180 178 180 176 176 179 174 171 175 176 179 183 186 190 195 200 204 207 214 222 227 234 241 246 254 259 263 266 267 271 276 280 286 290 295 299 301 302 302 304 308 309 309 310 315 317 317 317 317 318 325 323 299 270 263 259 253 252 255 263 268 259
201 204 186 183 191 190 188 192 197 199 199 197 196 194 196 203 200 197 202 200 198 195 161 172 185 186 187 188 185 181 174 177 180 180 184 185 187 192 193 195 201 206 214 222 228 236 243 249 256 261 263 267 270 276 282 286 291 297 303 310 312 312 312 311 311 311 309 309 311 314 315 316 319 321 328 332 315 273 253 251 246 247 251 258 262 253
202 208 190 174 185 188 187 194 197 194 193 192 192 193 194 199 199 195 201 206 207 206 179 180 187 177 179 192 191 181 174 182 187 187 187 186 189 192 192 196 203 208 216 222 230 240 248 253 259 263 267 273 279 286 291 294 301 309 312 316 317 316 316 314 313 310 309 309 309 310 312 312 316 320 326 333 323 282 247 241 241 247 254 259 261 251
197 203 190 173 183 191 192 196 197 196 195 192 194 196 193 193 193 190 192 201 210 212 194 193 181 164 181 191 185 177 174 185 194 192 186 186 190 192 194 200 206 210 217 225 236 246 253 258 264 269 273 279 287 293 298 305 312 313 313 315 316 317 318 316 316 312 310 311 310 310 311 310 312 317 323 332 326 276 234 230 236 247 255 259 256 242
190 197 192 181 184 190 194 196 195 194 194 194 198 198 195 195 196 197 192 186 197 199 188 199 191 164 184 180 171 177 183 190 196 190 184 189 193 193 197 203 208 214 223 234 245 253 260 265 270 275 277 281 288 293 300 307 310 308 311 315 318 322 323 321 320 316 313 315 314 314 312 308 310 315 321 331 326 273 226 213 224 244 251 250 239 224
187 194 190 182 181 186 195 199 198 196 192 196 201 197 196 197 199 207 202 184 190 187 180 197 189 158 175 171 174 192 195 197 198 186 184 194 194 194 200 205 212 221 233 244 252 259 264 268 272 274 275 278 281 288 296 301 303 306 311 317 323 325 325 323 322 319 319 321 322 322 318 311 311 314 319 328 324 288 234 206 213 234 244 237 222 216
183 192 187 180 174 179 189 195 197 201 199 199 198 193 194 196 198 206 202 187 194 191 191 206 178 149 170 174 181 191 192 197 199 190 191 196 196 199 204 209 218 227 237 247 253 260 264 266 267 266 266 271 277 286 293 296 299 304 310 318 324 325 324 325 324 325 327 330 330 329 327 322 318 313 316 325 321 288 245 215 212 223 234 231 222 222
183 190 189 189 186 182 186 187 188 194 195 195 195 191 190 192 195 199 196 195 197 187 197 212 165 143 166 179 183 185 188 196 201 198 200 200 200 206 210 215 223 231 240 249 253 256 259 259 260 261 263 269 277 283 288 292 296 302 311 320 325 325 325 325 327 332 335 337 336 334 333 332 327 315 309 317 318 284 245 230 221 224 230 230 224 223
191 191 192 202 205 190 186 184 181 183 186 188 191 191 189 189 191 193 194 199 192 179 192 206 171 155 169 182 191 195 196 200 202 202 205 206 207 212 216 221 228 235 242 248 252 253 255 255 256 261 266 270 273 275 280 287 294 304 316 324 327 324 324 326 331 337 341 341 340 338 337 334 327 317 305 302 305 289 262 246 234 227 225 226 222 219
199 198 195 202 215 187 175 174 176 177 179 183 186 189 190 191 191 191 196 196 184 178 186 196 198 184 178 185 198 202 200 200 200 200 204 208 210 213 217 222 228 234 240 246 251 255 258 258 257 259 261 259 256 258 270 282 294 310 322 328 330 327 325 328 332 338 343 345 344 342 341 338 331 323 309 295 291 284 274 265 254 242 235 233 227 218
198 200 197 194 198 179 166 170 177 177 178 180 183 186 191 195 195 192 195 191 183 190 193 189 191 180 174 189 203 204 200 198 197 198 204 208 210 212 218 225 231 236 240 240 244 250 257 259 253 248 245 238 239 253 275 289 303 320 329 332 332 329 327 329 331 337 344 349 349 347 347 348 346 341 325 302 289 282 276 270 261 252 246 243 237 227
193 194 198 194 188 173 164 166 174 179 182 182 182 183 186 191 192 190 194 191 185 190 191 185 181 165 169 194 206 204 202 200 200 203 206 208 212 215 219 225 230 232 225 221 225 232 243 251 243 235 229 227 240 264 287 300 314 325 331 334 332 327 327 328 331 336 343 349 352 352 353 354 354 354 346 321 299 282 273 267 260 253 250 250 247 241
193 193 195 188 178 168 163 163 168 176 182 181 181 183 185 188 189 189 192 190 182 180 180 187 191 183 184 200 205 201 199 197 200 206 206 208 213 217 216 213 213 212 203 203 212 219 224 229 228 222 217 220 236 272 293 304 317 327 336 338 331 326 326 329 334 337 338 342 349 353 356 356 354 356 352 339 321 293 273 267 265 260 258 257 252 245
192 190 188 181 173 163 158 158 162 172 179 180 178 181 184 188 189 190 191 185 180 185 185 188 197 199 201 204 199 191 188 189 198 205 207 209 211 212 212 204 191 183 187 195 200 205 210 214 211 203 201 202 195 207 270 303 318 331 342 339 333 331 330 333 337 337 336 336 341 350 356 356 354 354 352 347 342 322 282 265 266 268 263 258 253 244
191 188 184 178 165 161 163 157 154 162 171 173 177 181 184 187 190 193 194 189 185 189 189 191 199 207 212 211 200 188 182 187 198 202 201 205 210 212 212 195 175 172 183 188 178 165 180 194 189 175 175 179 174 188 226 269 303 324 332 332 339 344 342 342 340 338 338 335 337 343 351 356 355 352 352 352 352 344 311 271 264 269 266 262 255 244
190 189 182 173 160 163 165 156 151 162 172 172 178 183 183 185 189 191 193 193 193 195 196 200 205 207 213 215 207 195 186 189 197 197 195 202 213 218 213 191 181 185 193 190 168 145 153 175 177 169 170 173 175 192 220 249 282 309 320 331 346 352 351 351 344 339 340 337 337 339 343 353 358 353 354 358 356 349 327 293 260 243 255 266 260 253
186 185 178 166 159 163 160 156 161 174 179 179 181 181 181 184 187 190 193 194 197 199 199 202 206 207 210 212 208 196 188 190 197 199 201 209 216 220 215 198 191 195 208 204 176 154 155 171 179 175 174 181 192 206 229 264 292 311 322 332 343 350 353 355 349 343 341 339 339 337 337 347 355 354 357 2 358 351 338 320 278 241 253 269 252 249
183 183 175 156 149 160 163 166 180 176 173 185 187 180 180 181 179 184 191 190 191 192 190 190 195 198 202 206 202 190 185 192 199 198 202 211 218 221 216 201 192 196 215 215 189 177 174 169 173 178 181 198 218 229 256 297 306 313 322 330 339 348 353 357 355 350 346 341 339 338 337 342 350 357 2 4 6 11 15 12 353 279 278 261 205 236
179 180 174 158 149 161 164 152 145 151 174 192 193 186 185 184 178 181 188 187 186 185 183 186 189 189 194 197 194 187 185 192 195 192 194 203 214 214 201 189 190 197 209 212 199 197 197 185 184 187 190 221 251 263 280 294 301 307 314 327 340 348 353 358 357 352 352 349 342 339 339 342 351 3 8 12 27 39 42 37 32 13 335 233 206 226
179 180 178 167 156 160 159 144 139 153 182 196 198 195 194 193 190 189 189 190 192 189 186 190 191 189 190 189 185 184 186 190 193 196 203 207 210 208 198 193 200 202 206 212 213 214 218 217 215 206 192 233 305 305 288 278 276 284 299 323 338 344 349 356 355 353 356 357 348 343 342 344 357 11 25 50 61 55 47 34 28 27 22 356 262 237
181 179 178 172 164 166 173 173 172 168 177 192 198 198 196 196 192 185 180 192 203 199 195 197 194 189 188 184 182 185 189 194 199 206 213 214 214 212 205 204 212 209 209 219 224 225 228 235 238 237 239 283 318 325 319 296 276 271 275 298 324 336 342 346 345 345 351 355 355 356 349 345 359 19 45 76 69 50 45 37 31 35 36 23 356 307
177 173 168 172 175 179 183 182 172 166 186 192 192 192 192 190 184 178 176 195 204 202 199 198 192 184 179 175 179 186 193 199 203 205 206 206 204 202 203 213 221 220 222 228 227 226 234 243 248 256 270 285 292 305 321 317 293 280 277 287 308 321 326 331 333 338 346 350 354 3 2 347 355 24 43 56 10 357 32 52 49 42 36 31 24 17
174 171 167 170 176 180 183 173 150 164 190 189 189 191 191 185 180 180 183 195 203 207 206 200 192 181 174 173 180 190 195 195 195 198 200 199 194 193 206 230 235 230 229 232 232 236 244 250 255 267 278 287 291 296 304 304 291 286 287 289 300 309 315 321 327 332 340 345 348 359 15 22 355 4 20 11 334 322 326 22 40 35 29 33 35 31
174 173 169 168 168 174 182 173 155 173 186 186 191 192 186 176 175 183 182 182 193 204 207 203 194 183 175 174 182 192 196 191 186 186 189 190 186 187 209 238 239 230 225 228 235 240 243 245 252 264 275 285 292 292 294 292 286 287 296 301 305 311 316 320 324 328 336 342 346 357 18 40 30 355 356 2 355 352 356 1 1 1 7 20 28 27
172 170 169 175 172 171 177 174 171 197 196 187 187 185 179 176 177 184 190 190 186 189 195 196 191 182 176 178 185 194 199 197 190 189 193 187 177 181 216 235 231 225 226 232 236 237 241 249 255 264 277 288 292 291 294 298 297 301 314 318 319 324 326 326 328 334 339 341 347 0 11 17 24 23 11 0 0 9 15 8 356 354 0 4 1 360
171 167 167 177 174 173 181 185 189 205 199 190 186 184 183 186 186 182 187 193 187 180 175 176 177 173 175 184 191 196 198 194 191 200 213 214 208 218 231 229 222 221 227 237 240 237 243 255 263 275 288 295 298 300 300 302 304 309 315 315 318 327 334 335 338 345 348 348 350 4 9 7 12 29 27 5 354 354 357 354 347 337 336 332 323 323
181 180 181 182 181 180 184 186 186 188 186 183 182 179 178 180 179 175 172 172 174 172 165 168 176 175 177 187 197 200 200 200 202 207 213 214 220 230 230 221 218 220 226 236 241 238 239 250 263 279 292 300 308 313 314 317 321 322 321 321 325 332 338 343 350 357 3 5 2 1 3 2 3 8 3 352 348 346 341 337 333 327 322 321 313 306
188 185 184 184 185 183 180 178 174 166 165 166 166 170 173 173 171 169 166 162 163 166 164 166 176 181 182 187 196 201 204 207 206 207 207 208 217 228 227 219 219 223 229 235 237 237 245 255 265 277 292 314 334 344 351 354 351 347 347 348 351 354 356 1 8 13 14 13 6 356 349 345 345 344 339 336 338 339 337 334 330 325 324 327 331 327
187 184 182 181 181 177 174 175 170 163 163 165 164 169 177 178 172 169 168 164 164 166 167 168 175 183 185 187 194 201 204 204 202 203 209 216 223 227 222 218 221 226 230 231 229 239 254 259 258 266 288 334 357 9 17 16 12 11 14 16 16 19 21 21 21 22 21 17 9 1 352 345 338 332 331 334 334 332 332 333 332 330 327 324 325 326
187 185 181 180 182 179 174 176 175 169 169 171 170 174 181 181 174 170 168 165 165 168 172 173 177 184 189 193 198 202 205 208 209 210 213 216 218 217 216 217 221 221 216 204 208 240 253 240 226 215 186 117 30 26 28 27 24 24 27 29 30 33 34 31 28 26 27 27 23 18 11 4 356 346 340 338 334 326 322 323 326 330 331 328 324 322
188 186 184 187 190 186 181 181 181 179 178 178 177 179 182 181 173 168 166 165 166 170 175 179 182 187 193 199 203 207 211 214 214 213 210 206 203 205 207 205 201 197 187 179 191 217 213 198 186 168 147 128 68 46 43 37 32 32 36 38 38 39 39 36 34 33 33 34 35 33 29 25 20 14 7 1 353 341 331 324 322 323 326 328 328 326
179 183 189 192 195 198 197 193 189 188 187 184 180 179 180 178 171 166 166 167 169 172 178 184 189 192 192 190 189 191 194 196 195 193 193 194 196 198 197 191 187 183 175 172 179 182 177 169 155 138 125 108 86 69 60 53 47 46 50 50 48 46 43 40 38 37 36 36 36 36 34 33 31 27 22 17 10 3 356 350 344 337 333 333 333 331
182 186 187 184 194 205 201 195 194 194 190 185 182 180 178 174 171 170 171 170 170 171 174 181 192 193 182 171 166 167 170 173 177 179 182 186 189 189 184 177 172 168 163 163 164 161 153 142 130 122 116 104 91 78 68 62 53 49 49 46 43 40 38 36 36 34 32 31 29 28 28 28 28 26 23 19 15 10 6 3 359 356 351 347 343 342
Height
3098 3100 3100 3102 3104 3106 3109 3112 3114 3115 3116 3117 3119 3121 3122 3123 3124 3126 3126 3127 3130 3134 3136 3137 3140 3141 3141 3142 3143 3145 3146 3148 3149 3150 3152 3152 3152 3153 3155 3156 3157 3157 3159 3159 3160 3160 3161 3161 3162 3162 3162 3162 3163 3163 3164 3164 3165 3165 3165 3164 3164 3164 3163 3163 3163 3162 3162 3161 3160 3159 3158 3157 3157 3156 3156 3155 3154 3154 3153 3153 3152 3152 3152 3152 3152 3151
3096 3097 3098 3100 3103 3106 3108 3111 3113 3114 3115 3117 3118 3119 3120 3121 3123 3125 3126 3126 3129 3132 3134 3136 3138 3139 3139 3141 3143 3144 3145 3147 3148 3149 3150 3151 3152 3153 3154 3154 3155 3156 3158 3159 3159 3160 3160 3161 3161 3161 3162 3162 3163 3163 3163 3163 3164 3164 3164 3163 3163 3162 3162 3162 3162 3161 3161 3160 3159 3159 3158 3157 3156 3156 3155 3154 3153 3153 3152 3151 3150 3150 3150 3150 3150 3150
3094 3095 3097 3100 3103 3106 3107 3109 3111 3112 3114 3116 3117 3118 3119 3120 3121 3123 3125 3125 3128 3131 3133 3134 3137 3137 3138 3140 3141 3143 3144 3145 3146 3147 3147 3149 3150 3152 3152 3152 3154 3155 3157 3158 3159 3159 3160 3160 3161 3161 3161 3162 3162 3162 3162 3163 3163 3163 3162 3162 3162 3161 3161 3161 3161 3160 3159 3159 3158 3157 3157 3156 3156 3155 3154 3153 3152 3151 3150 3149 3149 3149 3148 3148 3148 3148
3091 3093 3096 3099 3101 3103 3105 3107 3109 3112 3114 3115 3116 3116 3117 3118 3119 3121 3123 3125 3127 3129 3131 3133 3135 3136 3137 3139 3140 3141 3143 3144 3145 3145 3145 3146 3148 3150 3150 3151 3153 3154 3155 3157 3158 3159 3160 3160 3160 3161 3161 3161 3161 3162 3162 3162 3162 3161 3161 3161 3161 3160 3160 3160 3159 3159 3158 3157 3157 3156 3156 3155 3155 3155 3154 3152 3151 3150 3148 3147 3147 3147 3146 3146 3146 3146
3090 3092 3095 3097 3098 3101 3103 3105 3108 3110 3112 3113 3114 3115 3116 3117 3119 3120 3121 3124 3127 3129 3130 3132 3134 3135 3136 3137 3138 3140 3141 3142 3143 3143 3144 3145 3146 3148 3149 3150 3152 3153 3154 3155 3157 3158 3159 3159 3160 3160 3160 3160 3160 3160 3160 3160 3160 3160 3160 3160 3160 3159 3159 3159 3158 3158 3157 3156 3155 3155 3154 3154 3154 3153 3152 3151 3149 3149 3148 3146 3146 3145 3144 3143 3144 3144
3091 3092 3092 3094 3097 3100 3102 3103 3105 3108 3110 3111 3112 3114 3115 3116 3119 3120 3120 3123 3126 3127 3128 3130 3131 3131 3134 3136 3136 3138 3139 3140 3141 3141 3142 3143 3145 3147 3148 3149 3150 3151 3152 3154 3155 3157 3158 3159 3159 3159 3159 3159 3159 3159 3159 3159 3159 3159 3159 3159 3158 3158 3158 3158 3158 3157 3156 3155 3154 3153 3152 3152 3152 3151 3150 3149 3148 3147 3147 3146 3145 3144 3142 3141 3142 3142
3089 3089 3090 3093 3096 3098 3101 3102 3104 3106 3108 3109 3110 3113 3115 3116 3118 3119 3121 3122 3123 3123 3125 3127 3126 3126 3132 3134 3134 3136 3138 3138 3139 3140 3140 3141 3142 3144 3146 3147 3148 3149 3151 3152 3154 3155 3157 3157 3158 3158 3158 3158 3158 3158 3158 3158 3158 3158 3158 3158 3157 3157 3157 3157 3156 3156 3155 3154 3154 3153 3151 3151 3150 3150 3149 3147 3146 3145 3145 3144 3143 3142 3141 3140 3140 3140
3085 3086 3089 3092 3094 3096 3098 3099 3101 3105 3107 3107 3109 3112 3114 3116 3117 3119 3120 3121 3120 3121 3123 3125 3125 3125 3128 3131 3132 3135 3136 3137 3137 3138 3139 3139 3140 3142 3143 3145 3146 3148 3149 3151 3153 3154 3155 3156 3156 3156 3157 3156 3157 3157 3157 3157 3157 3157 3157 3156 3156 3155 3155 3155 3155 3154 3154 3153 3153 3152 3150 3149 3149 3148 3147 3146 3145 3143 3143 3143 3142 3141 3140 3139 3138 3138
3082 3084 3087 3090 3092 3094 3095 3097 3100 3103 3106 3107 3108 3111 3114 3115 3117 3118 3119 3119 3119 3121 3121 3122 3125 3123 3123 3127 3130 3133 3135 3135 3135 3136 3137 3138 3139 3141 3142 3144 3145 3147 3148 3150 3151 3152 3153 3154 3154 3155 3155 3155 3155 3155 3155 3156 3156 3156 3155 3155 3155 3154 3154 3154 3154 3153 3152 3152 3151 3150 3149 3147 3146 3146 3145 3144 3143 3142 3141 3141 3140 3140 3138 3137 3137 3136
3080 3082 3085 3088 3090 3091 3094 3097 3099 3101 3105 3106 3107 3110 3113 3114 3116 3117 3118 3118 3119 3119 3117 3118 3122 3120 3119 3125 3129 3131 3133 3133 3133 3134 3135 3137 3138 3139 3141 3142 3144 3146 3147 3148 3150 3151 3152 3152 3152 3153 3153 3153 3153 3154 3154 3154 3154 3154 3154 3154 3153 3153 3152 3152 3152 3151 3151 3149 3148 3147 3146 3144 3144 3143 3142 3142 3141 3140 3139 3138 3138 3138 3137 3136 3136 3134
3080 3082 3085 3087 3088 3091 3094 3096 3097 3100 3103 3104 3106 3109 3111 3113 3115 3116 3117 3116 3116 3117 3114 3115 3119 3117 3118 3124 3127 3129 3130 3130 3131 3133 3134 3135 3136 3138 3139 3141 3143 3144 3145 3147 3148 3149 3150 3150 3150 3151 3151 3151 3152 3152 3152 3152 3153 3153 3153 3152 3152 3151 3150 3150 3149 3149 3148 3147 3145 3144 3142 3141 3141 3140 3140 3139 3139 3138 3137 3136 3136 3136 3136 3135 3134 3133
3079 3080 3082 3085 3087 3090 3093 3093 3096 3099 3101 3103 3105 3108 3110 3112 3114 3115 3115 3115 3114 3112 3111 3113 3117 3117 3117 3122 3125 3125 3127 3128 3129 3131 3132 3134 3135 3137 3138 3140 3141 3143 3144 3145 3146 3147 3147 3148 3148 3149 3149 3149 3150 3150 3150 3151 3151 3151 3151 3151 3150 3149 3149 3148 3147 3146 3145 3144 3142 3140 3139 3138 3138 3137 3137 3136 3136 3136 3135 3135 3134 3133 3133 3133 3133 3132
3078 3078 3080 3082 3084 3087 3089 3091 3094 3097 3099 3101 3103 3104 3105 3107 3110 3110 3109 3111 3110 3109 3110 3112 3116 3117 3116 3120 3123 3123 3124 3126 3127 3129 3131 3132 3134 3135 3137 3138 3140 3141 3142 3143 3144 3145 3145 3146 3146 3147 3147 3147 3148 3148 3149 3149 3150 3150 3149 3149 3148 3147 3147 3146 3145 3144 3143 3141 3140 3138 3137 3136 3135 3134 3134 3133 3133 3133 3132 3133 3132 3132 3131 3131 3131 3130
3076 3077 3079 3080 3081 3084 3087 3088 3090 3093 3096 3098 3099 3100 3100 3099 3104 3106 3103 3104 3106 3107 3109 3112 3113 3115 3116 3119 3122 3121 3122 3124 3126 3128 3130 3131 3132 3134 3136 3137 3139 3140 3141 3141 3142 3143 3143 3144 3145 3145 3145 3145 3146 3147 3147 3148 3148 3148 3147 3146 3146 3146 3145 3144 3143 3142 3140 3139 3138 3136 3135 3133 3132 3131 3130 3129 3129 3129 3129 3129 3129 3129 3129 3129 3129 3127
3071 3072 3074 3076 3078 3081 3084 3086 3088 3091 3094 3096 3097 3098 3097 3095 3098 3101 3099 3099 3101 3104 3109 3111 3112 3113 3115 3118 3119 3119 3120 3122 3124 3126 3128 3130 3131 3133 3134 3136 3137 3138 3139 3140 3140 3141 3141 3142 3142 3143 3143 3143 3144 3145 3146 3146 3146 3145 3145 3144 3144 3144 3143 3142 3141 3140 3139 3137 3136 3134 3132 3131 3129 3128 3126 3125 3125 3125 3125 3125 3125 3126 3127 3127 3127 3125
3067 3068 3070 3074 3077 3079 3082 3085 3088 3091 3093 3094 3096 3097 3096 3094 3097 3099 3098 3098 3100 3102 3107 3110 3111 3112 3114 3116 3118 3119 3120 3121 3123 3125 3126 3128 3130 3131 3133 3135 3136 3137 3138 3138 3138 3138 3139 3139 3140 3141 3141 3142 3143 3143 3144 3144 3144 3143 3143 3142 3142 3142 3141 3140 3139 3138 3137 3136 3134 3132 3130 3128 3127 3125 3124 3122 3122 3121 3121 3121 3121 3122 3124 3124 3124 3123
3066 3067 3069 3073 3075 3077 3080 3083 3087 3088 3089 3092 3093 3093 3093 3094 3096 3097 3098 3100 3100 3102 3105 3109 3111 3113 3115 3117 3118 3118 3119 3120 3122 3123 3125 3127 3129 3130 3132 3133 3134 3135 3136 3136 3136 3137 3137 3138 3138 3139 3140 3141 3141 3142 3142 3142 3141 3141 3141 3141 3140 3139 3138 3137 3137 3136 3135 3133 3131 3129 3128 3126 3125 3123 3121 3120 3119 3118 3117 3117 3118 3119 3121 3121 3121 3120
3064 3066 3068 3071 3074 3076 3079 3083 3085 3086 3088 3089 3090 3091 3093 3094 3094 3095 3097 3100 3100 3100 3104 3107 3108 3111 3113 3115 3117 3118 3118 3119 3120 3122 3124 3125 3127 3129 3130 3132 3133 3134 3134 3134 3135 3135 3136 3136 3137 3138 3138 3139 3140 3140 3140 3139 3139 3139 3139 3138 3138 3137 3136 3135 3134 3134 3132 3130 3129 3127 3125 3124 3123 3121 3119 3117 3115 3114 3114 3114 3115 3117 3118 3118 3119 3118
3063 3064 3066 3070 3072 3074 3078 3081 3082 3084 3085 3087 3088 3090 3092 3092 3093 3094 3094 3096 3096 3096 3101 3106 3106 3108 3110 3111 3113 3115 3116 3117 3118 3120 3122 3124 3126 3127 3129 3130 3131 3132 3133 3133 3133 3134 3134 3135 3136 3136 3137 3138 3138 3138 3138 3137 3137 3137 3137 3136 3136 3135 3134 3133 3132 3131 3130 3128 3127 3125 3123 3122 3120 3118 3116 3114 3111 3110 3110 3111 3112 3114 3114 3115 3116 3115
3062 3062 3063 3068 3071 3072 3075 3077 3078 3079 3082 3085 3087 3089 3090 3090 3091 3092 3091 3092 3092 3093 3099 3105 3105 3106 3108 3109 3110 3112 3114 3115 3117 3119 3121 3123 3125 3126 3128 3129 3130 3131 3131 3131 3132 3133 3133 3134 3135 3135 3136 3136 3136 3136 3136 3135 3135 3135 3135 3134 3134 3133 3132 3131 3130 3129 3128 3127 3125 3123 3121 3120 3118 3116 3113 3111 3108 3107 3107 3108 3109 3110 3111 3112 3113 3113
3061 3061 3061 3065 3068 3070 3071 3071 3073 3075 3078 3081 3083 3084 3086 3088 3089 3090 3091 3091 3090 3089 3094 3100 3103 3104 3106 3108 3109 3111 3113 3114 3115 3117 3119 3121 3123 3125 3127 3128 3129 3129 3130 3130 3131 3132 3132 3133 3133 3134 3134 3134 3135 3134 3134 3133 3133 3133 3133 3133 3132 3131 3130 3129 3128 3127 3126 3125 3123 3122 3120 3118 3116 3113 3111 3108 3106 3104 3104 3105 3106 3108 3109 3110 3111 3111
3059 3060 3061 3062 3065 3066 3067 3069 3071 3074 3076 3078 3079 3080 3082 3085 3086 3087 3089 3090 3089 3088 3090 3094 3098 3102 3105 3107 3109 3110 3112 3113 3114 3116 3118 3120 3122 3124 3125 3126 3127 3128 3129 3129 3130 3130 3131 3131 3132 3132 3132 3133 3133 3132 3132 3132 3132 3132 3131 3131 3130 3130 3129 3128 3127 3126 3124 3123 3122 3120 3118 3116 3114 3111 3109 3106 3104 3103 3102 3103 3104 3106 3107 3108 3109 3109
3057 3059 3059 3060 3062 3064 3065 3067 3070 3072 3075 3077 3078 3079 3081 3083 3084 3084 3085 3088 3089 3089 3091 3092 3096 3101 3105 3106 3108 3109 3110 3111 3113 3115 3118 3119 3121 3123 3124 3125 3126 3127 3127 3127 3128 3128 3129 3129 3130 3130 3130 3131 3131 3131 3131 3131 3131 3130 3130 3129 3129 3128 3127 3126 3125 3124 3123 3121 3120 3118 3116 3114 3111 3109 3107 3105 3103 3102 3100 3101 3102 3104 3105 3106 3106 3107
3056 3056 3057 3059 3061 3063 3065 3067 3070 3072 3074 3076 3076 3077 3079 3081 3083 3083 3083 3086 3088 3089 3091 3092 3095 3101 3104 3106 3108 3108 3108 3110 3112 3114 3116 3117 3119 3121 3122 3123 3124 3125 3125 3125 3126 3126 3127 3127 3128 3128 3129 3129 3130 3130 3130 3130 3129 3129 3128 3128 3127 3127 3126 3125 3123 3122 3121 3119 3118 3116 3114 3112 3110 3107 3106 3104 3102 3101 3100 3100 3101 3102 3103 3104 3105 3106
3054 3055 3055 3057 3059 3062 3065 3067 3068 3069 3071 3072 3073 3075 3077 3079 3081 3083 3084 3086 3087 3088 3090 3090 3092 3098 3101 3104 3106 3106 3107 3109 3110 3112 3114 3116 3118 3119 3120 3121 3122 3123 3124 3124 3124 3125 3125 3126 3126 3127 3128 3128 3129 3129 3129 3129 3128 3127 3127 3126 3126 3125 3124 3123 3122 3121 3120 3118 3116 3114 3112 3110 3108 3106 3105 3103 3102 3101 3101 3101 3101 3102 3103 3104 3104 3106
3053 3054 3055 3054 3055 3057 3058 3059 3061 3063 3066 3069 3071 3073 3075 3078 3080 3082 3083 3084 3084 3087 3089 3090 3091 3096 3099 3102 3104 3105 3105 3106 3108 3110 3112 3114 3116 3117 3119 3120 3121 3122 3122 3123 3123 3124 3124 3125 3125 3126 3126 3127 3127 3127 3127 3127 3127 3126 3126 3125 3125 3124 3123 3122 3121 3120 3118 3116 3114 3113 3111 3109 3107 3105 3104 3103 3102 3102 3101 3101 3101 3102 3102 3103 3104 3105
3052 3054 3054 3054 3053 3054 3055 3056 3058 3061 3064 3067 3069 3071 3074 3076 3078 3080 3082 3083 3083 3086 3089 3089 3091 3094 3098 3100 3101 3102 3103 3105 3107 3109 3110 3112 3114 3116 3118 3119 3120 3121 3121 3122 3122 3122 3123 3124 3124 3124 3125 3125 3126 3126 3126 3126 3126 3125 3125 3124 3124 3123 3122 3121 3119 3118 3117 3115 3113 3111 3110 3108 3106 3104 3103 3103 3102 3101 3101 3101 3101 3101 3101 3101 3102 3103
3052 3053 3053 3054 3055 3054 3055 3057 3059 3061 3064 3066 3068 3071 3073 3075 3077 3080 3081 3081 3083 3085 3087 3088 3090 3092 3095 3097 3098 3099 3102 3104 3106 3108 3109 3111 3113 3115 3116 3118 3119 3120 3120 3121 3121 3121 3122 3122 3123 3123 3124 3124 3125 3125 3125 3125 3125 3124 3124 3123 3123 3122 3121 3120 3118 3117 3116 3114 3112 3111 3109 3107 3105 3104 3103 3102 3102 3101 3101 3101 3101 3101 3101 3100 3100 3101
3051 3052 3053 3054 3055 3054 3055 3056 3058 3060 3063 3066 3068 3069 3072 3074 3077 3080 3081 3082 3084 3085 3085 3088 3091 3093 3094 3095 3096 3098 3101 3103 3105 3107 3108 3110 3112 3114 3115 3116 3118 3119 3119 3120 3120 3120 3120 3121 3121 3122 3123 3123 3124 3124 3124 3124 3123 3123 3122 3122 3122 3121 3120 3119 3118 3116 3115 3113 3112 3110 3108 3106 3104 3103 3103 3102 3101 3101 3101 3101 3100 3100 3100 3099 3099 3100
3050 3052 3053 3054 3054 3054 3054 3056 3058 3060 3062 3064 3067 3069 3071 3074 3076 3079 3081 3082 3084 3085 3086 3088 3091 3092 3094 3095 3095 3097 3100 3102 3104 3106 3107 3109 3111 3112 3114 3116 3117 3118 3119 3119 3119 3120 3120 3120 3121 3121 3122 3122 3123 3123 3123 3123 3122 3122 3121 3121 3121 3120 3119 3118 3117 3116 3114 3113 3111 3110 3108 3106 3105 3104 3102 3101 3101 3100 3100 3099 3099 3099 3098 3098 3098 3099
3048 3050 3051 3053 3054 3054 3054 3056 3058 3060 3062 3064 3066 3068 3070 3073 3075 3078 3080 3082 3084 3085 3086 3088 3089 3091 3092 3093 3094 3096 3099 3101 3103 3104 3106 3108 3109 3111 3113 3115 3116 3117 3118 3118 3118 3119 3119 3120 3120 3120 3121 3121 3122 3122 3122 3122 3121 3121 3120 3120 3120 3119 3118 3117 3116 3115 3114 3112 3111 3109 3108 3106 3105 3104 3102 3101 3100 3099 3098 3097 3097 3097 3097 3097 3098 3099
3047 3049 3050 3052 3054 3054 3055 3056 3058 3060 3062 3064 3065 3067 3070 3072 3074 3076 3079 3081 3083 3084 3086 3087 3089 3090 3091 3092 3094 3096 3098 3100 3101 3103 3105 3107 3108 3110 3112 3114 3115 3116 3117 3117 3118 3118 3119 3119 3119 3120 3120 3120 3121 3121 3121 3120 3120 3120 3120 3119 3119 3118 3118 3117 3116 3115 3113 3112 3111 3109 3108 3106 3105 3103 3102 3101 3099 3098 3097 3096 3097 3097 3096 3096 3097 3098
3046 3048 3049 3051 3053 3054 3055 3056 3058 3060 3062 3063 3065 3066 3068 3071 3073 3075 3078 3080 3082 3083 3085 3086 3087 3089 3090 3091 3093 3095 3097 3099 3101 3103 3105 3106 3108 3110 3112 3113 3114 3115 3116 3117 3117 3118 3118 3118 3119 3119 3119 3119 3120 3120 3120 3119 3119 3119 3119 3118 3118 3118 3117 3116 3115 3114 3113 3111 3110 3109 3108 3106 3105 3103 3102 3101 3099 3098 3096 3096 3096 3096 3095 3095 3096 3096
3045 3048 3049 3051 3052 3054 3055 3056 3058 3059 3060 3062 3065 3066 3068 3070 3072 3074 3077 3079 3080 3082 3084 3085 3087 3088 3089 3091 3092 3094 3096 3098 3100 3102 3105 3106 3108 3109 3111 3113 3114 3114 3115 3116 3117 3117 3118 3118 3118 3118 3118 3118 3119 3119 3119 3119 3118 3118 3118 3118 3117 3117 3116 3115 3114 3113 3112 3111 3110 3108 3107 3106 3105 3103 3102 3101 3099 3098 3097 3096 3095 3094 3094 3094 3094 3095
3045 3047 3048 3050 3052 3053 3055 3057 3058 3059 3060 3062 3065 3066 3068 3070 3072 3074 3076 3077 3079 3081 3083 3084 3086 3087 3088 3090 3092 3094 3096 3098 3100 3102 3104 3106 3107 3109 3111 3112 3113 3114 3114 3115 3116 3117 3117 3118 3118 3118 3118 3118 3118 3118 3118 3118 3118 3118 3117 3117 3116 3116 3115 3115 3114 3112 3111 3110 3109 3108 3106 3105 3104 3103 3101 3100 3099 3098 3096 3095 3094 3094 3093 3093 3094 3095
3044 3046 3047 3050 3051 3053 3055 3057 3058 3059 3061 3063 3065 3066 3068 3069 3071 3073 3075 3076 3078 3080 3082 3083 3084 3086 3087 3089 3091 3094 3096 3098 3100 3102 3103 3105 3106 3108 3110 3111 3112 3113 3114 3114 3115 3116 3116 3117 3118 3118 3118 3117 3117 3118 3118 3117 3117 3117 3117 3116 3116 3115 3115 3114 3113 3112 3111 3110 3108 3107 3106 3105 3103 3102 3101 3100 3098 3097 3096 3095 3094 3094 3094 3094 3094 3095
3044 3046 3047 3048 3051 3053 3055 3057 3059 3061 3063 3063 3064 3066 3067 3068 3070 3072 3074 3076 3077 3079 3080 3082 3083 3084 3086 3088 3090 3092 3095 3097 3099 3101 3102 3104 3106 3107 3109 3110 3111 3112 3113 3114 3114 3115 3116 3117 3117 3117 3117 3117 3117 3118 3118 3117 3117 3117 3116 3115 3115 3114 3114 3113 3112 3111 3110 3109 3108 3107 3105 3104 3103 3102 3101 3099 3098 3098 3096 3095 3095 3094 3094 3094 3094 3094
3044 3046 3047 3048 3050 3052 3055 3057 3060 3062 3062 3062 3063 3065 3066 3068 3070 3072 3074 3076 3077 3078 3079 3081 3082 3083 3085 3087 3090 3092 3095 3097 3098 3100 3101 3103 3105 3107 3108 3110 3111 3111 3112 3113 3113 3114 3115 3116 3116 3117 3117 3117 3117 3117 3117 3116 3116 3116 3115 3115 3114 3113 3113 3112 3111 3110 3110 3109 3108 3106 3105 3104 3103 3102 3101 3100 3099 3098 3097 3096 3095 3094 3094 3093 3093 3093
3044 3045 3047 3048 3050 3052 3054 3055 3057 3059 3060 3060 3062 3064 3066 3068 3069 3072 3074 3075 3077 3078 3079 3080 3081 3083 3084 3087 3089 3092 3094 3095 3097 3098 3100 3102 3104 3106 3107 3109 3110 3110 3111 3112 3112 3113 3114 3115 3115 3115 3116 3117 3117 3116 3116 3116 3115 3115 3115 3114 3113 3112 3112 3111 3111 3110 3109 3108 3107 3106 3105 3104 3103 3102 3101 3100 3099 3098 3097 3096 3095 3095 3094 3093 3092 3092
3044 3046 3047 3049 3050 3052 3053 3054 3055 3057 3058 3059 3061 3063 3065 3067 3069 3071 3073 3074 3075 3077 3078 3079 3081 3082 3084 3086 3089 3091 3093 3094 3097 3098 3100 3102 3103 3105 3106 3108 3108 3109 3110 3110 3111 3112 3113 3114 3114 3114 3115 3116 3116 3116 3115 3115 3114 3114 3114 3113 3112 3112 3111 3110 3109 3109 3108 3107 3107 3106 3105 3104 3103 3102 3102 3101 3100 3099 3098 3097 3096 3095 3094 3093 3092 3091
3044 3045 3047 3048 3050 3052 3053 3054 3055 3057 3058 3059 3061 3063 3065 3067 3069 3071 3071 3072 3074 3075 3077 3078 3080 3082 3083 3086 3088 3091 3093 3095 3097 3098 3099 3101 3103 3104 3105 3107 3107 3108 3109 3110 3110 3111 3112 3112 3113 3113 3114 3114 3114 3114 3114 3114 3113 3113 3112 3112 3111 3111 3110 3109 3108 3108 3107 3107 3106 3105 3105 3104 3103 3102 3102 3101 3100 3099 3098 3097 3096 3096 3095 3094 3093 3092
3044 3045 3047 3048 3049 3051 3052 3054 3055 3056 3057 3059 3061 3062 3065 3067 3069 3070 3070 3072 3073 3074 3076 3078 3079 3081 3083 3086 3088 3090 3092 3093 3095 3097 3098 3100 3102 3103 3105 3106 3107 3107 3108 3109 3110 3110 3110 3111 3111 3112 3112 3113 3113 3113 3113 3113 3112 3112 3111 3111 3110 3110 3109 3108 3107 3107 3106 3106 3105 3105 3104 3104 3103 3102 3101 3101 3100 3099 3098 3097 3097 3096 3095 3094 3094 3094
3043 3045 3047 3048 3049 3050 3052 3054 3054 3055 3056 3059 3061 3062 3064 3066 3067 3068 3070 3071 3073 3074 3075 3077 3079 3080 3083 3085 3087 3089 3091 3092 3093 3095 3097 3099 3101 3102 3104 3105 3106 3106 3107 3108 3108 3109 3109 3110 3110 3111 3111 3111 3111 3112 3112 3111 3111 3111 3110 3110 3109 3109 3108 3107 3107 3106 3105 3105 3104 3104 3104 3103 3103 3102 3101 3100 3100 3099 3098 3098 3097 3096 3095 3095 3094 3094
3043 3044 3046 3047 3048 3050 3052 3052 3053 3054 3055 3058 3060 3062 3063 3065 3066 3068 3069 3071 3072 3073 3075 3076 3078 3080 3082 3084 3086 3088 3089 3091 3092 3094 3097 3098 3100 3101 3102 3104 3104 3105 3106 3106 3107 3108 3108 3109 3109 3110 3110 3110 3110 3110 3110 3110 3110 3110 3109 3109 3108 3108 3107 3107 3106 3105 3104 3104 3103 3103 3103 3102 3102 3101 3101 3100 3099 3099 3099 3098 3098 3097 3097 3096 3095 3095
3042 3044 3045 3046 3048 3049 3050 3052 3053 3054 3055 3057 3059 3061 3063 3064 3066 3067 3069 3070 3071 3073 3074 3076 3077 3079 3081 3083 3085 3087 3088 3090 3092 3094 3096 3097 3098 3100 3101 3102 3103 3104 3105 3105 3106 3107 3108 3108 3109 3109 3109 3109 3109 3109 3109 3109 3109 3108 3108 3107 3107 3107 3106 3106 3105 3105 3104 3104 3103 3102 3102 3102 3101 3101 3101 3100 3100 3099 3099 3098 3098 3097 3097 3096 3096 3095
3042 3043 3045 3046 3048 3049 3050 3052 3053 3054 3055 3057 3059 3060 3062 3064 3066 3067 3068 3070 3071 3073 3074 3076 3078 3079 3081 3083 3084 3086 3087 3089 3091 3093 3095 3096 3097 3098 3099 3100 3101 3102 3103 3104 3105 3106 3106 3107 3108 3108 3108 3108 3108 3108 3108 3108 3107 3107 3107 3106 3106 3106 3105 3105 3105 3105 3104 3104 3103 3102 3102 3101 3101 3101 3100 3100 3099 3099 3098 3098 3098 3097 3097 3096 3095 3095
3042 3043 3044 3046 3048 3049 3050 3052 3053 3054 3055 3057 3058 3060 3062 3064 3065 3067 3068 3070 3071 3073 3074 3076 3078 3079 3081 3082 3084 3086 3087 3089 3090 3092 3093 3095 3096 3097 3098 3099 3100 3101 3102 3103 3104 3105 3105 3106 3107 3107 3107 3107 3107 3107 3107 3107 3107 3107 3106 3106 3106 3105 3105 3105 3105 3105 3104 3104 3103 3103 3102 3101 3101 3100 3100 3099 3099 3098 3097 3097 3097 3096 3096 3095 3095 3094
3042 3043 3044 3046 3047 3049 3050 3051 3053 3054 3056 3057 3058 3060 3061 3063 3065 3067 3068 3070 3071 3072 3074 3075 3077 3079 3080 3082 3083 3085 3086 3088 3089 3090 3092 3093 3094 3096 3097 3098 3099 3100 3101 3102 3103 3104 3104 3105 3106 3106 3106 3107 3107 3107 3107 3106 3106 3106 3106 3106 3106 3105 3105 3105 3105 3105 3104 3104 3103 3103 3102 3102 3101 3100 3100 3099 3099 3098 3097 3096 3096 3095 3095 3095 3094 3094
3041 3043 3044 3045 3047 3048 3049 3051 3052 3054 3055 3057 3058 3059 3061 3063 3065 3067 3068 3069 3071 3072 3074 3075 3076 3078 3079 3080 3082 3083 3085 3086 3088 3089 3091 3092 3094 3095 3096 3098 3099 3100 3101 3101 3102 3103 3104 3105 3105 3105 3106 3106 3106 3106 3106 3106 3106 3106 3106 3106 3106 3105 3105 3105 3105 3105 3104 3104 3103 3103 3102 3102 3101 3100 3100 3099 3098 3098 3097 3096 3096 3095 3094 3094 3094 3093
3041 3043 3043 3045 3047 3048 3049 3050 3052 3053 3054 3056 3057 3059 3061 3063 3065 3066 3068 3069 3071 3072 3073 3075 3076 3077 3078 3079 3081 3082 3084 3085 3087 3088 3090 3091 3093 3095 3096 3097 3098 3099 3100 3101 3101 3103 3104 3104 3105 3105 3106 3106 3106 3106 3106 3106 3106 3106 3106 3106 3106 3105 3105 3105 3105 3105 3104 3104 3103 3103 3102 3101 3101 3100 3099 3099 3098 3098 3097 3096 3095 3095 3094 3094 3093 3092
3040 3041 3042 3044 3046 3046 3047 3049 3050 3052 3053 3055 3056 3058 3060 3062 3064 3066 3067 3069 3070 3072 3073 3075 3076 3077 3077 3078 3080 3082 3084 3085 3087 3088 3090 3091 3093 3094 3096 3097 3098 3099 3100 3101 3102 3103 3104 3104 3105 3105 3105 3106 3106 3106 3106 3107 3107 3107 3106 3106 3106 3106 3106 3105 3105 3104 3104 3103 3103 3102 3102 3101 3101 3100 3100 3099 3098 3098 3097 3096 3095 3095 3094 3093 3092 3092